This is the latest recevied weather packets stored in our database for station/object SV7RNH. If no packets are shown the sender has not sent any weather packets the latest 10 day(s).
| Time | Temp. | Humidity | Pressure | Rain* | Wind** | Luminosity | Snow |
|---|---|---|---|---|---|---|---|
| 1777800305 | 18.89° C | 17% | 1020.8 hPa | 0 mm | - | - | - |
| 1777800004 | 18.33° C | 15% | 1020.7 hPa | 0 mm | - | - | - |
| 1777799703 | 18.33° C | 18% | 1020.8 hPa | 0 mm | - | - | - |
| 1777799403 | 17.78° C | 19% | 1020.8 hPa | 0 mm | - | - | - |
| 1777799103 | 17.22° C | 19% | 1020.8 hPa | 0 mm | - | - | - |
| 1777798804 | 17.22° C | 22% | 1020.8 hPa | 0 mm | - | - | - |
| 1777798504 | 16.67° C | 23% | 1020.9 hPa | 0 mm | - | - | - |
| 1777798203 | 17.22° C | 22% | 1020.8 hPa | 0 mm | - | - | - |
| 1777797903 | 16.67° C | 27% | 1020.7 hPa | 0 mm | - | - | - |
| 1777797603 | 16.11° C | 29% | 1020.7 hPa | 0 mm | - | - | - |
| 1777797304 | 15.56° C | 33% | 1020.7 hPa | 0 mm | - | - | - |
| 1777797004 | 15° C | 32% | 1020.8 hPa | 0.25 mm | - | - | - |
| 1777796703 | 15.56° C | 34% | 1020.7 hPa | 0.25 mm | - | - | - |
| 1777796403 | 16.11° C | 31% | 1020.7 hPa | 0.25 mm | - | - | - |
| 1777796104 | 16.11° C | 32% | 1020.8 hPa | 0.25 mm | - | - | - |
| 1777795804 | 15.56° C | 26% | 1020.9 hPa | 0.25 mm | - | - | - |
| 1777795503 | 16.11° C | 26% | 1020.9 hPa | 0.25 mm | - | - | - |
| 1777795203 | 16.11° C | 26% | 1020.8 hPa | 0.25 mm | - | - | - |
| 1777794904 | 15.56° C | 28% | 1020.8 hPa | 0.25 mm | - | - | - |
| 1777794604 | 15.56° C | 28% | 1020.8 hPa | 0.25 mm | - | - | - |
| 1777794304 | 15.56° C | 32% | 1020.8 hPa | 0.25 mm | - | - | - |
| 1777794003 | 15.56° C | 33% | 1020.9 hPa | 0.25 mm | - | - | - |
| 1777793704 | 15.56° C | 34% | 1021 hPa | 0.25 mm | - | - | - |
| 1777793404 | 15.56° C | 42% | 1020.9 hPa | 0 mm | - | - | - |
| 1777793104 | 15.56° C | 45% | 1020.8 hPa | 0 mm | - | - | - |
* Rain latest hour (hover to see other rain measurements)
** Current wind speed in m/s (hover to see current wind gust speed)